Regional Weather Roundup
Issued by NWS Sterling, VA

Home | Current Version | Previous Version | Graphics & Text | Print | Product List | Glossary On
Versions: 1 2 3 4 5 6 7 8 9 10 11 12 13 14 15 16 17 18 19 20 21 22 23 24 25 26 27 28 29
000
ASUS41 KLWX 241410
RWRLWX

REGIONAL WEATHER ROUNDUP
NATIONAL WEATHER SERVICE BALTIMORE MD/WASHINGTON DC
1000 AM EDT FRI OCT 24 2014

Note: "FAIR" indicates few or no clouds below 12,000 feet
with no significant weather and/or obstructions to visibility.
 TC=TEMPERATURE CELSIUS

 * =Non NWS site. Station does not report precipitation (e.g. rain,
    snow, etc.), thunder, or fog.

DCZ001-MDZ009-015-VAZ040>042-051-053>054-241500-
WASHINGTON METRO

CITY           SKY/WX    TMP DP  RH WIND       PRES   REMARKS
WASHINGTON NAT PTSUNNY   59  42  53 NW13G22   29.99R
DULLES         PTSUNNY   55  42  61 NW18G25   30.01R
ANDREWS AFB    MOSUNNY   56  43  61 NW17G25   29.97R
FT BELVOIR     MOSUNNY   58  44  59 NW14G25   30.00R
QUANTICO       PTSUNNY   57  42  57 NW21G28   30.02R
COLLEGE PARK*  MOSUNNY   59  43  55 NW12      29.97S
LEESBURG*      MOSUNNY   55  46  71 NW16G22   30.02S
GAITHERSBURG*  SUNNY     55  43  62 NW16G23   30.02S

$$

MDZ006>007-011-014-241500-
BALTIMORE METRO

CITY           SKY/WX    TMP DP  RH WIND       PRES   REMARKS
BWI AIRPORT    MOSUNNY   59  42  53 NW20G28   29.95S
MD SCIENCE CTR   N/A     60  41  49 MISG      29.96S
MARTIN STATE   MOSUNNY   61  46  59 W13       29.96R
ANNAPOLIS      SUNNY     58  44  60 NW14G21   29.94F
FORT MEADE*    SUNNY     57  43  58 W9G18     29.99R

$$

MDZ012-015-019>023-241500-
MARYLAND EASTERN SHORE

CITY           SKY/WX    TMP DP  RH WIND       PRES   REMARKS
OCEAN CITY     PTSUNNY   58  47  66 NW8G22    29.90F
SALISBURY      SUNNY     61  46  57 NW15G23   29.91F
BAY BRIDGE AP*   N/A     57  43  58 NW14      29.94S
CAMBRIDGE*     SUNNY     59  45  58 NW12G23   29.93S
EASTON*        MOSUNNY   59  48  67 NW14G22   29.97R

$$

MDZ017>025-241500-
SOUTHERN MARYLAND

CITY           SKY/WX    TMP DP  RH WIND       PRES   REMARKS
PATUXENT RIVER PTSUNNY   59  44  57 NW15      29.96S
ST INIGOES       N/A     58  43  57 W15G23    29.97R
LEONARDTOWN*   MOSUNNY   55  43  62 W9G16     29.99R

$$

MDZ003>005-241500-
NORTH CENTRAL MARYLAND

CITY           SKY/WX    TMP DP  RH WIND       PRES   REMARKS
FREDERICK*     SUNNY     63  43  48 W9        30.03R
HAGERSTOWN APT SUNNY     55  41  59 W13       30.01R
WESTMINSTER*   SUNNY     55  41  58 NW9G20    29.97S

$$

MDZ501>502-241500-
WESTERN MARYLAND

CITY           SKY/WX    TMP DP  RH WIND       PRES   REMARKS
OAKLAND*       MOSUNNY   43 N/A N/A W7        30.07F
CUMBERLAND*    SUNNY     55  39  54 W6        30.10S

$$

VAZ025>031-241500-
SHENANDOAH VALLEY

CITY           SKY/WX    TMP DP  RH WIND       PRES   REMARKS
WINCHESTER*    MOSUNNY   57  36  44 W15       30.03S
FRONT ROYAL*   FAIR      57  43  58 S3        30.03F
LURAY*         FAIR      55  45  67 SW7       30.05S
NEW MARKET*    FAIR      49  43  77 CALM      30.06S
STAUNTON*      MOSUNNY   50  42  76 CALM      30.08F
WAYNESBORO*    FAIR      52  41  66 W3        30.05S

$$

WVZ021-048>050-054>055-241500-
EASTERN WEST VIRGINIA PANHANDLE

CITY           SKY/WX    TMP DP  RH WIND       PRES   REMARKS
MARTINSBURG    MOSUNNY   56  40  55 NW8G20    30.03S
PETERSBURG*    PTSUNNY   47  43  86 CALM      30.09F

$$

VAZ036>039-050-241500-
CENTRAL FOOTHILLS

CITY           SKY/WX    TMP DP  RH WIND       PRES   REMARKS
CHARLOTTESVILL PTSUNNY   55  42  61 NW3       30.02S
CULPEPER*      PTSUNNY   57  43  58 N3        30.02S
ORANGE*        PTSUNNY   52  45  76 CALM      30.02F
GORDONSVILLE*  FAIR      53  45  75 CALM      30.01R
WARRENTON*     FAIR      60  48  64 N5        30.01R

$$

VAZ055>057-241500-
NORTH AND CENTRAL PIEDMONT

CITY           SKY/WX    TMP DP  RH WIND       PRES   REMARKS
FREDERICKSBRG* PTSUNNY   60  44  55 N10       30.00S
STAFFORD*      PTSUNNY   57  42  58 NW10G18   30.05S

$$

NCZ024-NYZ072-PAZ021-071-VAZ022-071-241500-
OTHER REGIONAL OBSERVATIONS

CITY           SKY/WX    TMP DP  RH WIND       PRES   REMARKS
NEW YORK CITY  CLOUDY    54  43  66 NW7       29.85S
PHILADELPHIA   PTSUNNY   59  43  55 N22G29    29.89R
PITTSBURGH     CLOUDY    42  39  89 CALM      30.10S
ROANOKE        CLOUDY    52  42  69 W7        30.10S
RICHMOND       PTSUNNY   59  44  57 NW7       30.01S
RALEIGH        PTSUNNY   53  42  66 N3        30.07R

$$

ANZ530>537-241500-
MARINE OBSERVATIONS

STATION/POSITION TIME  TEMP    WIND        PRES
                       AIR SEA DIR/SP/G
                 (UTC) (F)     (DEG/KT/KT) (MB)
THOMAS PT LIGHT  1400   57 62  310/ 17/ 21 1014.8F
BALT KEY BRIDGE  1400   58     290/ 15/ 17 1013.9R
COVE POINT       1400   57     340/ 19/ 22 1014.0S
LEWISETTA        1400   57 59  330/ 14/ 18 1014.6F
SOLOMONS ISLAND  1400      63                N/A
PINEY POINT      1400          330/ 22/ 24   N/A

$$




USA.gov is the U.S. government's official web portal to all federal, state and local government web resources and services.